{"data":{"norad_id":58219,"epoch":"2026-09-20T04:14:24.823680Z","epoch_age_seconds":171615,"freshness":"FRESH","line1":"1 58219U 23170P   26263.17667620  .00007163  00000+0  26951-3 0  9994","line2":"2 58219  42.9992 175.8684 0001289 271.9623  88.1081 15.27587379160042","mean_motion":15.27587379,"eccentricity":0.0001289,"inclination_deg":42.9992,"raan_deg":175.8684,"arg_perigee_deg":271.9623,"mean_anomaly_deg":88.1081,"bstar":0.00026951,"rev_number":16004,"period_min":94.266293358791,"perigee_km":482.14259670832,"apogee_km":483.91140478771,"semimajor_km":6861.164000748,"source":"CELESTRAK","updated_at":"2026-09-21T09:00:33.833709Z"}}